Weather in Abuy

Kazakhstan     41°20′54″N   68°56′42″E
temp.,
°C
wind,
m/s
gust,
m/s
humid.,
%
clouds,
%
prec.,
mm/h
press.,
hPa
HPBL,
m
17 may, tue
tue1700:00+22ene3339100 0.0 100933
03:00+21e2242100 0.0 100822
06:00+20e22440 0.0 100811
09:00+25e22350 0.0 1009211
12:00+30ssw11263 0.0 10091743
15:00+31nw222035 0.0 10072892
18:00+31nw222174 0.0 10072688
21:00+27e2227100 0.0 100728
18 may, wed
wed1800:00+24se4734100 0.0 1008131
03:00+22ese2246100 0.1 100721
06:00+20ne335289 0.4 100755
09:00+25se233799 0.1 1009271
12:00+28sw4533100 0.1 1011878
15:00+30sw4423100 0.0 10112412
18:00+29sse542828 0.0 1011891
21:00+25sse343552 0.0 101296
19 may, thu
thu1900:00+22ese22410 0.0 101232
03:00+21ne22410 0.0 101120
06:00+20ene33420 0.0 101244
09:00+25ne33340 0.0 1013295
12:00+30nnw3326100 0.0 10121391
15:00+32nnw542289 0.0 10102724
18:00+31n5425100 0.0 10092313
21:00+26n41040100 0.0 1010249
20 may, fri
fri2000:00+23ne3748100 0.0 1010175
03:00+21nne4655100 0.0 1008134
06:00+20nne2254100 0.0 100823
09:00+24se234492 0.0 1009357
12:00+28s223599 0.0 1008998
15:00+32wnw112880 0.0 10071748
18:00+32nw3225100 0.0 10052439
21:00+26nw1240100 0.0 100544
21 may, sat
sat2100:00+24s3344100 0.1 100554
03:00+22sse4648100 0.0 1005131
06:00+21sse3655100 0.4 1005116
09:00+24s454890 0.5 1006311
12:00+30sw44312 0.5 10061602
15:00+32wsw34220 0.0 10043060
18:00+32wsw33201 0.0 10032440
21:00+27sw22252 0.0 100328